TimeEST,TemperatureF,Dew PointF,Humidity,Sea Level PressureIn,VisibilityMPH,Wind Direction,Wind SpeedMPH,Gust SpeedMPH,PrecipitationIn,Events,Conditions,WindDirDegrees,DateUTC
12:54 AM,26.1,16.0,66,30.14,10.0,NW,17.3,-,N/A,,Overcast,320,2014-02-06 05:54:00
1:54 AM,25.0,15.1,66,30.18,10.0,NW,11.5,20.7,N/A,,Overcast,320,2014-02-06 06:54:00
2:54 AM,24.1,14.0,65,30.20,10.0,NNW,12.7,-,N/A,,Scattered Clouds,330,2014-02-06 07:54:00
3:54 AM,23.0,12.0,63,30.22,10.0,NNW,17.3,25.3,N/A,,Clear,330,2014-02-06 08:54:00
4:54 AM,21.9,10.9,63,30.25,10.0,NNW,9.2,-,N/A,,Clear,330,2014-02-06 09:54:00
5:54 AM,21.0,10.9,65,30.27,10.0,NW,6.9,-,N/A,,Clear,320,2014-02-06 10:54:00
6:54 AM,19.9,10.9,68,30.30,10.0,NW,6.9,-,N/A,,Clear,320,2014-02-06 11:54:00
7:54 AM,19.0,10.9,71,30.33,10.0,NW,3.5,-,N/A,,Clear,310,2014-02-06 12:54:00
8:54 AM,21.0,12.9,71,30.34,10.0,NW,6.9,-,N/A,,Clear,310,2014-02-06 13:54:00
9:54 AM,23.0,12.0,63,30.35,10.0,NW,12.7,-,N/A,,Clear,320,2014-02-06 14:54:00
10:54 AM,24.1,14.0,65,30.34,10.0,NW,6.9,-,N/A,,Clear,320,2014-02-06 15:54:00
11:54 AM,26.1,15.1,63,30.33,10.0,NW,10.4,-,N/A,,Clear,320,2014-02-06 16:54:00
12:55 PM,26.6,15.8,64,30.27,20.0,NNW,11.5,-,N/A,,Clear,330,2014-02-06 17:55:00
1:54 PM,28.0,16.0,61,30.27,10.0,NNW,10.4,-,N/A,,Clear,340,2014-02-06 18:54:00
2:54 PM,30.0,16.0,56,30.26,10.0,WNW,5.8,-,N/A,,Clear,300,2014-02-06 19:54:00
3:54 PM,30.0,15.1,54,30.25,10.0,West,8.1,-,N/A,,Clear,280,2014-02-06 20:54:00
4:54 PM,28.9,15.1,56,30.25,10.0,WSW,8.1,-,N/A,,Clear,240,2014-02-06 21:54:00
5:54 PM,27.0,15.1,61,30.27,10.0,WSW,3.5,-,N/A,,Clear,240,2014-02-06 22:54:00
6:54 PM,26.1,16.0,66,30.26,10.0,Calm,Calm,-,N/A,,Clear,0,2014-02-06 23:54:00
7:54 PM,24.1,16.0,71,30.25,10.0,SSW,3.5,-,N/A,,Clear,200,2014-02-07 00:54:00
8:54 PM,23.0,17.1,78,30.26,10.0,Calm,Calm,-,N/A,,Clear,0,2014-02-07 01:54:00
9:54 PM,23.0,16.0,74,30.28,10.0,WSW,3.5,-,N/A,,Clear,240,2014-02-07 02:54:00
10:54 PM,21.9,16.0,78,30.28,10.0,West,5.8,-,N/A,,Clear,260,2014-02-07 03:54:00
11:54 PM,23.0,14.0,68,30.28,10.0,West,4.6,-,N/A,,Clear,280,2014-02-07 04:54:00